Theta_e
346 347 348 348 349 349 349 348 347 344 338 343 342 342 345 346 345 345 346 345 347 346 347 345 345 345 346 346 347 347 345 344 344 345 342 342 341 341 342 344 344 344 344
345 347 347 349 348 348 347 346 342 341 344 344 340 337 345 344 346 345 346 345 345 346 345 346 344 346 346 346 347 347 346 348 348 347 344 345 342 342 342 342 343 343 344
347 347 347 349 349 349 347 346 347 346 346 347 340 342 344 343 347 347 346 347 347 347 346 345 345 347 346 345 348 348 349 350 348 347 346 346 345 341 340 341 342 342 343
345 345 346 347 348 349 347 347 347 347 346 348 346 345 346 347 347 347 348 347 348 348 345 346 344 348 348 345 348 349 349 351 350 350 348 349 348 347 347 343 344 346 346
343 344 345 347 346 347 348 346 347 347 348 349 348 348 348 348 347 348 348 349 348 348 347 347 345 349 347 345 348 347 348 350 350 349 349 348 342 345 346 351 348 348 349
343 343 345 345 344 344 347 348 347 347 348 349 349 349 347 347 348 347 348 350 349 348 348 348 346 348 349 347 349 347 346 348 349 347 348 351 348 344 344 345 345 347 349
344 342 342 344 344 343 346 346 347 348 347 349 349 350 348 349 348 348 348 349 349 349 347 349 348 349 349 347 350 349 346 346 345 348 349 350 351 349 341 341 345 345 347
346 344 345 344 344 344 347 347 347 347 348 348 350 350 349 347 348 348 349 349 348 348 349 349 348 349 348 348 347 349 347 346 347 345 348 350 350 351 351 350 348 350 346
348 345 344 347 345 345 347 348 348 347 348 350 351 351 347 348 348 348 350 349 349 350 350 350 349 350 349 348 348 349 349 348 348 347 347 347 350 351 348 349 348 348 353
348 348 346 347 346 345 345 348 348 347 348 350 350 349 350 345 343 346 348 349 350 349 349 349 350 350 350 349 349 348 349 348 347 348 349 348 349 350 350 350 349 349 348
347 346 346 346 346 346 345 347 349 348 347 348 350 350 350 349 348 347 348 349 348 349 349 348 348 349 349 349 349 349 350 350 348 350 350 349 348 350 350 349 349 351 352
343 344 345 347 345 346 347 350 349 348 348 349 352 351 350 349 349 348 346 345 347 348 348 348 349 349 350 349 349 349 351 351 350 351 350 349 348 347 348 348 349 350 350
341 343 343 345 345 343 343 341 343 343 342 342 342 341 342 345 348 349 347 347 349 351 348 349 348 348 350 349 350 351 352 352 351 350 350 349 350 350 351 351 351 351 351
339 339 341 343 342 341 341 341 342 338 337 337 337 339 340 342 342 346 348 350 350 351 350 349 348 343 346 349 350 350 352 352 351 350 349 351 350 350 352 352 353 353 353
337 337 336 339 339 339 340 342 342 340 336 337 340 340 342 343 345 348 349 349 351 350 351 351 351 350 350 347 347 348 349 350 351 351 350 350 350 351 351 351 350 352 351
333 333 333 335 337 338 338 338 333 331 336 338 339 339 341 340 341 342 345 348 349 349 350 350 350 352 353 352 351 350 352 353 352 351 351 352 353 352 352 353 352 351 351
327 327 331 331 331 332 332 331 331 335 336 334 332 331 332 336 338 337 340 342 343 344 345 346 348 348 349 351 353 353 353 354 354 354 354 353 351 349 348 350 351 353 353
326 327 327 326 325 324 323 322 322 323 324 323 324 328 329 330 331 331 331 332 336 339 339 339 340 342 344 345 347 349 351 352 352 352 353 353 353 352 351 351 351 349 348
320 322 323 321 320 320 320 319 318 317 317 316 317 318 319 321 323 324 325 329 331 331 330 332 335 337 338 340 341 342 344 346 348 349 350 350 350 351 351 351 351 351 351
319 319 319 318 318 317 317 316 314 314 314 314 314 315 315 315 316 317 318 321 324 325 327 329 331 334 336 339 338 341 342 343 344 346 347 348 348 348 349 349 349 350 350
317 318 317 316 315 314 314 312 311 311 311 312 313 314 314 314 315 315 316 317 318 321 321 326 327 327 328 326 325 323 325 324 323 328 337 339 340 339 338 338 339 341 342
314 315 314 313 312 312 311 310 309 309 310 311 312 313 313 313 314 314 314 314 315 316 316 316 317 320 323 324 322 322 322 322 323 323 323 323 321 321 321 322 322 323 325
313 314 313 311 311 310 309 308 307 307 308 309 310 311 312 312 312 313 313 313 313 313 313 314 315 315 316 317 317 318 318 320 321 322 322 323 324 325 325 324 323 324 331
312 311 311 309 309 308 307 307 307 306 306 307 308 309 309 309 309 310 310 310 310 310 311 312 312 312 313 314 315 316 317 318 319 320 321 321 322 322 322 324 326 329 331
311 310 310 309 308 307 306 306 305 305 304 305 306 306 306 305 305 306 306 304 306 307 308 309 310 310 311 311 312 313 314 315 316 318 319 319 319 319 320 322 325 325 326
311 310 309 309 308 306 306 305 304 304 304 304 304 304 303 303 303 303 302 302 303 305 305 305 307 308 308 308 309 311 312 313 314 315 316 317 317 318 319 321 325 325 320
Wind_Speed
15 19 23 24 24 24 25 25 21 19 19 19 17 16 15 14 12 9 13 10 9 8 5 8 5 3 4 5 8 10 8 7 9 5 5 5 5 6 7 7 9 11 11
8 16 22 23 25 27 26 25 22 22 21 19 19 17 17 14 13 14 13 12 11 9 8 6 4 4 2 3 6 10 7 7 8 5 3 3 4 5 6 7 7 9 8
12 13 19 24 26 27 29 27 26 22 21 15 15 13 15 12 12 13 13 13 13 12 10 8 5 4 3 2 3 7 9 9 6 7 3 2 1 5 5 6 7 8 10
6 10 18 21 29 31 29 28 26 22 21 15 16 15 16 13 13 14 13 11 11 11 11 9 7 5 5 3 2 5 9 10 10 3 6 4 2 1 4 5 6 9 10
7 11 18 26 28 32 33 29 26 24 21 17 17 15 14 12 10 12 13 12 11 10 10 10 9 5 4 5 4 4 6 10 13 12 6 3 8 9 3 2 8 7 12
4 7 10 8 16 21 27 29 26 26 22 19 17 17 16 12 11 12 14 13 11 10 8 7 10 7 4 6 5 3 4 6 9 10 12 13 5 5 5 4 3 6 9
2 2 9 14 17 19 23 29 29 26 23 21 17 13 11 10 14 15 14 14 14 11 11 9 9 8 6 7 5 3 1 2 4 7 9 11 12 7 5 4 2 3 6
2 2 2 10 14 19 22 26 30 28 24 21 17 14 13 13 13 13 16 15 14 13 10 11 9 8 9 8 8 5 2 1 1 3 5 6 7 9 8 5 3 1 6
6 4 4 0 9 17 21 23 24 29 25 22 17 14 14 13 13 11 17 16 14 13 11 12 12 10 9 10 9 8 5 3 3 2 2 3 3 4 4 5 5 2 1
9 3 5 6 5 16 14 18 20 26 25 20 18 14 12 10 11 14 16 15 14 14 12 14 14 13 11 10 10 9 8 6 4 3 2 1 2 2 3 3 3 3 2
9 9 9 8 8 8 11 18 21 24 22 19 18 15 10 10 8 6 16 16 13 14 15 15 13 14 13 10 11 10 9 7 6 6 6 5 4 4 4 4 4 3 2
4 4 2 14 16 10 13 20 21 20 19 17 14 10 10 10 11 9 7 10 12 13 15 12 12 12 15 13 12 11 10 9 9 7 6 7 5 6 5 5 4 3 4
5 4 7 5 13 15 11 12 18 22 19 15 10 4 1 6 12 13 13 12 12 9 10 10 8 13 13 14 14 12 11 10 10 10 9 6 5 5 5 5 6 7 8
5 3 5 9 12 20 19 17 17 20 16 12 11 9 7 5 7 13 14 14 13 12 10 9 9 9 12 13 13 12 12 11 10 8 9 10 9 9 9 9 9 10 12
5 3 1 6 17 18 19 16 16 16 13 3 10 8 8 6 3 5 10 12 12 13 14 12 10 10 10 12 15 15 14 13 13 13 11 12 12 13 13 14 14 13 13
7 6 5 7 12 16 20 21 23 22 11 9 7 9 6 6 7 6 7 8 7 7 9 10 12 12 10 12 12 12 14 13 14 15 15 14 14 15 16 16 15 14 15
10 9 9 13 18 22 19 19 21 17 13 11 11 10 8 7 8 8 8 10 7 6 5 4 2 3 4 7 13 14 15 15 14 15 16 15 14 12 12 13 13 14 14
11 12 15 18 22 27 28 28 26 26 24 21 18 14 14 14 13 12 11 12 9 9 7 7 6 4 2 3 3 4 9 12 14 15 16 16 17 16 16 15 16 16 17
12 16 21 22 26 28 26 28 25 23 24 20 19 16 14 15 14 14 13 14 9 12 10 9 10 8 7 6 6 5 6 8 11 13 14 15 14 15 16 15 17 20 21
19 16 23 25 27 24 26 26 22 21 20 17 16 15 14 13 12 12 12 11 10 13 12 12 13 15 15 11 11 9 7 7 9 6 5 4 4 6 8 9 11 15 17
20 26 24 26 23 22 22 23 20 18 15 14 15 15 14 15 14 13 13 13 14 13 14 12 9 10 12 10 12 13 11 12 11 8 5 4 4 6 8 9 11 13 16
20 23 25 22 19 18 19 20 19 13 12 13 15 15 14 15 15 15 15 15 15 15 16 15 15 13 8 8 9 9 9 9 9 11 10 9 9 8 9 11 12 13 15
20 21 24 21 16 15 14 18 14 11 12 13 14 15 14 16 16 16 15 16 16 16 17 16 16 17 15 13 11 11 12 8 9 10 10 10 10 9 11 13 12 12 10
22 24 23 20 17 15 15 15 13 12 13 15 15 14 15 14 14 14 15 15 16 16 16 16 17 17 17 18 17 16 13 12 10 11 12 12 11 12 13 14 12 10 10
21 22 21 19 17 15 14 13 12 10 14 14 14 14 14 15 15 15 14 15 15 13 13 13 13 15 16 18 17 17 17 17 16 16 13 13 14 15 16 15 14 13 10
24 20 18 18 17 14 13 12 10 9 12 14 14 13 13 13 12 12 12 12 12 10 10 10 10 9 10 12 14 15 15 15 17 16 16 18 18 17 18 16 14 12 13
Wind_Direction
180 174 173 188 195 195 196 196 192 192 191 188 185 185 183 187 191 180 180 181 186 190 168 181 158 117 65 58 30 17 23 22 6 5 12 337 326 323 329 324 321 314 322
149 163 167 181 195 195 199 195 183 183 186 193 193 195 187 191 199 195 197 196 208 211 194 189 179 155 125 74 41 27 33 19 20 36 34 9 353 359 346 343 8 11 8
175 169 175 178 196 198 198 199 186 187 187 185 184 181 184 184 189 196 203 210 214 217 210 207 207 194 183 138 63 39 39 27 47 58 63 56 308 330 2 12 360 7 14
216 180 174 183 194 204 204 204 196 191 190 191 186 184 180 177 192 202 207 207 209 212 213 211 212 201 197 181 119 67 51 44 39 54 49 51 16 31 344 17 18 22 27
216 196 188 192 197 201 205 200 202 192 191 196 193 195 202 202 189 193 193 201 206 208 201 211 198 191 201 186 153 103 68 55 54 59 49 53 68 46 55 342 351 50 35
325 211 210 200 197 201 207 205 203 200 195 193 200 209 202 209 199 185 194 194 196 201 194 195 192 190 185 187 172 130 99 64 54 51 54 58 81 57 48 45 343 340 23
333 156 181 191 200 200 209 210 202 200 198 195 203 215 214 213 205 200 198 193 194 196 203 199 199 204 209 206 204 186 130 60 47 47 52 58 67 76 77 67 53 1 21
197 160 131 198 206 209 208 212 206 202 200 199 203 213 218 209 219 218 205 203 205 208 207 210 210 228 223 220 220 220 223 211 8 36 40 41 60 67 74 74 68 8 10
207 174 206 271 205 208 212 211 214 207 204 201 203 213 213 219 218 228 215 212 212 218 218 219 217 220 220 222 218 221 236 239 243 291 324 14 20 42 46 53 54 83 13
195 188 208 217 227 217 209 214 221 215 208 209 209 214 219 222 216 231 212 215 216 216 222 224 225 224 222 223 219 220 229 246 260 249 229 220 351 338 19 22 34 54 96
193 215 217 210 230 248 230 209 218 220 204 208 210 214 220 231 237 259 219 216 219 221 229 225 228 229 228 227 221 224 224 239 246 251 251 263 281 294 312 342 337 351 347
144 146 164 209 193 204 205 198 210 202 201 195 198 209 217 229 241 245 248 229 229 239 235 236 234 248 231 232 229 224 231 237 244 244 268 253 264 261 280 292 309 325 332
134 152 172 156 170 172 181 160 155 136 121 122 124 116 229 249 246 242 236 244 255 267 251 236 236 236 225 233 235 238 236 242 254 254 255 252 249 256 266 280 299 313 316
134 146 159 142 146 136 141 142 133 132 115 85 75 50 7 326 268 251 240 231 239 245 248 246 260 250 236 239 235 245 253 257 262 262 260 259 272 281 282 285 296 305 315
128 127 108 135 129 120 117 153 168 158 161 110 54 45 43 4 320 232 224 222 220 226 231 233 247 264 267 255 256 251 256 264 267 273 272 277 280 284 286 288 291 297 303
115 116 109 86 100 113 128 119 138 122 151 165 55 54 64 75 75 93 131 159 163 193 212 222 235 243 256 260 258 256 260 263 268 275 278 282 283 290 290 287 289 289 289
111 92 83 96 104 108 108 102 119 137 122 109 92 83 90 101 83 80 101 112 120 116 102 113 162 176 225 268 261 256 261 262 264 271 276 279 283 292 289 285 286 285 282
116 105 98 88 87 97 101 104 102 108 108 101 97 97 87 82 87 85 74 76 87 94 92 81 80 88 86 23 11 329 266 260 261 262 263 267 273 277 279 280 281 281 281
106 111 110 106 103 105 107 104 100 99 99 95 97 95 90 86 86 80 71 71 62 77 75 76 72 56 57 41 22 360 332 315 296 284 275 268 271 272 274 279 277 277 277
117 114 117 116 115 118 120 114 104 99 93 91 86 90 86 81 76 75 72 74 71 66 67 71 73 78 67 51 50 44 29 12 352 315 286 283 274 280 289 291 289 286 286
124 131 124 118 120 122 116 103 98 87 89 90 89 86 88 83 80 80 74 71 71 77 70 72 82 82 80 69 39 28 37 23 6 357 344 327 335 327 315 305 300 295 293
128 127 117 112 113 111 106 98 85 87 94 95 91 86 81 80 79 79 75 70 68 66 66 63 62 62 56 45 22 18 6 5 349 332 332 328 320 319 314 307 302 295 293
134 132 123 115 105 102 103 101 93 93 92 88 81 78 78 76 73 73 70 67 61 56 51 49 45 39 37 36 19 17 7 336 303 293 308 325 324 334 333 323 313 309 311
142 141 133 124 114 109 103 99 103 100 95 88 80 78 74 70 66 65 59 56 51 47 42 36 29 24 25 18 13 10 358 342 329 303 304 311 312 327 333 331 331 331 331
153 152 144 138 132 128 116 110 107 107 100 95 88 79 72 67 65 61 60 58 55 47 44 36 28 23 20 10 4 0 355 349 342 329 328 324 325 328 330 325 326 331 335
166 162 155 147 144 138 126 117 109 109 109 102 95 85 79 73 66 64 67 62 64 69 57 47 30 24 14 350 342 330 334 338 336 336 334 330 327 322 318 310 309 315 324